DW7229 Weather Reports


Display with metric or nautical units.
time (UTC)temp
F
wind
direction
speed
MPH
gust
MPH
rain 1hr
in
rain 24hr
in
rain mn
in
humidity
%
barometer
mb
20260831150021 75 0.0 0.0 0.00 0.00 0.00 48 1020.6
20260831145025 73 0.0 0.0 0.00 0.00 0.00 50 1020.5
20260831144028 71 0.0 0.0 0.00 0.00 0.00 52 1020.6
20260831143031 71 0.0 0.0 0.00 0.00 0.00 51 1020.6
20260831142016 71 0.0 0.0 0.00 0.00 0.00 52 1020.5
20260831141019 70 0.0 0.0 0.00 0.00 0.00 54 1020.5
20260831140023 69 0.0 0.0 0.00 0.00 0.00 54 1020.6
20260831135026 67 0.0 0.0 0.00 0.00 0.00 56 1020.5
20260831134044 64 0.0 0.0 0.00 0.00 0.00 68 1020.6
20260831133035 63 0.0 0.0 0.00 0.00 0.00 69 1020.5
20260831132018 62 0.0 0.0 0.00 0.00 0.00 73 1020.3
20260831131016 61 0.0 0.0 0.00 0.00 0.00 74 1020.4
20260831130045 61 0.0 0.0 0.00 0.00 0.00 75 1020.4
20260831125028 61 0.0 0.0 0.00 0.00 0.00 76 1020.2
20260831124031 60 0.0 0.0 0.00 0.00 0.00 83 1020.2
20260831123016 60 0.0 0.0 0.00 0.00 0.00 86 1020.1
20260831122020 59 270 0.0 1.0 0.00 0.00 0.00 87 1020.0
20260831121023 59 0.0 0.0 0.00 0.00 0.00 87 1019.9
20260831120027 58 0.0 0.0 0.00 0.00 0.00 87 1019.8
20260831115030 58 0.0 0.0 0.00 0.00 0.00 87 1019.9
20260831114015 57 0.0 0.0 0.00 0.00 0.00 87 1019.9
20260831113038 57 0.0 0.0 0.00 0.00 0.00 87 1019.9
20260831112021 57 0.0 0.0 0.00 0.00 0.00 86 1019.9
20260831111025 56 0.0 0.0 0.00 0.00 0.00 86 1019.9
20260831110028 57 0.0 0.0 0.00 0.00 0.00 86 1019.8
20260831105031 57 0.0 0.0 0.00 0.00 0.00 86 1020.0
20260831104017 57 0.0 0.0 0.00 0.00 0.00 84 1019.8
20260831103100 57 0.0 0.0 0.00 0.00 0.00 84 1019.6
20260831102023 57 0.0 0.0 0.00 0.00 0.00 84 1019.5
20260831101026 57 0.0 0.0 0.00 0.00 0.00 84 1019.4
20260831100044 57 0.0 0.0 0.00 0.00 0.00 84 1019.2
20260831095015 58 0.0 0.0 0.00 0.00 0.00 84 1018.9
20260831094018 58 0.0 0.0 0.00 0.00 0.00 84 1018.9
20260831093015 58 0.0 0.0 0.00 0.00 0.00 84 1018.8
20260831092025 58 0.0 0.0 0.00 0.00 0.00 84 1018.7
20260831091028 59 0.0 0.0 0.00 0.00 0.00 84 1018.5
20260831090032 59 0.0 0.0 0.00 0.00 0.00 83 1018.4
20260831085036 59 0.0 0.0 0.00 0.00 0.00 82 1018.5
20260831084020 59 0.0 0.0 0.00 0.00 0.00 82 1018.4
20260831083023 60 0.0 0.0 0.00 0.00 0.00 81 1018.4
20260831082027 60 0.0 0.0 0.00 0.00 0.00 81 1018.4
20260831081030 60 0.0 0.0 0.00 0.00 0.00 81 1018.2
20260831080015 60 0.0 0.0 0.00 0.00 0.00 81 1018.0
20260831075018 60 0.0 0.0 0.00 0.00 0.00 80 1018.1
20260831074022 60 0.0 0.0 0.00 0.00 0.00 80 1018.0
20260831073025 61 0.0 0.0 0.00 0.00 0.00 80 1018.0
20260831072028 61 0.0 0.0 0.00 0.00 0.00 79 1017.9
20260831071031 61 0.0 0.0 0.00 0.00 0.00 79 1017.6
20260831070017 62 0.0 0.0 0.00 0.00 0.00 78 1017.7
20260831065020 62 0.0 0.0 0.00 0.00 0.00 78 1017.8
20260831064023 63 0.0 0.0 0.00 0.00 0.00 78 1017.7
20260831063047 63 0.0 0.0 0.00 0.00 0.00 78 1017.6
20260831062024 64 0.0 0.0 0.00 0.00 0.00 78 1017.5
20260831061056 64 0.0 0.0 0.00 0.00 0.00 78 1017.4
20260831060039 64 0.0 0.0 0.00 0.00 0.00 77 1017.3
20260831055016 65 0.0 0.0 0.00 0.00 0.00 77 1017.4
20260831054146 65 0.0 0.0 0.00 0.00 0.00 77 1017.3
20260831053029 66 0.0 0.0 0.00 0.00 0.00 76 1017.3
20260831052032 66 0.0 0.0 0.00 0.00 0.00 75 1017.3
20260831051017 66 0.0 0.0 0.00 0.00 0.00 75 1017.2
20260831050020 67 0.0 0.0 0.00 0.00 0.00 75 1017.1
20260831045024 67 0.0 0.0 0.00 0.00 0.00 74 1016.9
20260831044027 67 0.0 0.0 0.00 0.00 0.00 74 1016.9
20260831043030 67 0.0 0.0 0.00 0.00 0.00 74 1016.8
20260831042015 68 0.0 0.0 0.00 0.00 0.00 73 1016.8
20260831041019 68 0.0 0.0 0.00 0.00 0.00 72 1016.6
20260831040022 69 0.0 0.0 0.00 0.00 0.00 71 1016.6
20260831035026 69 0.0 0.0 0.00 0.00 0.00 70 1016.7
20260831034049 70 0.0 0.0 0.00 0.00 0.00 70 1016.8
20260831033032 70 0.0 0.0 0.00 0.00 0.00 69 1016.8
20260831032038 71 0.0 0.0 0.00 0.00 0.00 69 1016.8
20260831031041 71 0.0 0.0 0.00 0.00 0.00 69 1016.8
20260831030044 71 0.0 0.0 0.00 0.00 0.00 69 1016.7
20260831025108 71 0.0 0.0 0.00 0.00 0.00 69 1016.7
20260831024024 71 0.0 0.0 0.00 0.00 0.00 71 1016.7
20260831023016 71 0.0 0.0 0.00 0.00 0.00 70 1016.6
20260831022019 71 0.0 0.0 0.00 0.00 0.00 70 1016.4
20260831021016 71 0.0 0.0 0.00 0.00 0.00 70 1016.5
20260831020026 71 0.0 0.0 0.00 0.00 0.00 70 1016.5
20260831015029 71 0.0 0.0 0.00 0.00 0.00 70 1016.4
20260831014032 71 0.0 0.0 0.00 0.00 0.00 70 1016.2
20260831013018 71 0.0 0.0 0.00 0.00 0.00 69 1016.2
20260831012021 71 0.0 0.0 0.00 0.00 0.00 69 1016.1
20260831011045 71 0.0 0.0 0.00 0.00 0.00 69 1016.0
20260831010028 72 0.0 0.0 0.00 0.00 0.00 69 1016.0
20260831005031 73 0.0 0.0 0.00 0.00 0.00 65 1015.6
20260831004036 74 0.0 0.0 0.00 0.00 0.00 64 1015.5
20260831003019 74 0.0 0.0 0.00 0.00 0.00 60 1015.5
20260831002023 74 0.0 0.0 0.00 0.00 0.00 59 1015.4
20260831001026 75 0.0 0.0 0.00 0.00 0.00 59 1015.4
20260831000029 75 0.0 0.0 0.00 0.00 0.00 58 1015.2
20260830235033 75 0.0 0.0 0.00 0.00 0.00 58 1015.1
20260830234018 75 0.0 0.0 0.00 0.00 0.00 58 1015.1
20260830233021 75 0.0 0.0 0.00 0.00 0.00 57 1015.1
20260830232024 76 225 0.0 2.0 0.00 0.00 0.00 57 1015.1
20260830231028 76 0.0 1.0 0.00 0.00 0.00 57 1015.2
20260830230025 76 293 0.0 2.0 0.00 0.00 0.00 56 1015.2
20260830225016 76 225 0.0 4.0 0.00 0.00 0.00 56 1015.4
20260830224020 77 270 0.0 2.0 0.00 0.00 0.00 55 1015.6
20260830223017 77 203 0.0 2.0 0.00 0.00 0.00 55 1015.6
20260830222046 78 0.0 2.0 0.00 0.00 0.00 54 1015.6
20260830221029 79 0.0 0.0 0.00 0.00 0.00 53 1015.6
20260830220015 80 233 1.0 4.0 0.00 0.00 0.00 52 1015.5
20260830215018 81 251 1.0 3.0 0.00 0.00 0.00 50 1015.6
20260830214021 81 135 0.0 2.0 0.00 0.00 0.00 51 1015.5
20260830213024 79 113 0.0 1.0 0.00 0.00 0.00 52 1015.6
20260830212028 79 280 3.0 8.0 0.00 0.00 0.00 52 1015.7
20260830211051 79 140 0.0 2.0 0.00 0.00 0.00 52 1015.9
20260830210016 79 249 2.0 7.0 0.00 0.00 0.00 52 1015.8
20260830205019 80 0.0 1.0 0.00 0.00 0.00 52 1015.8
20260830204023 79 259 1.0 3.0 0.00 0.00 0.00 51 1015.9
20260830203026 79 276 1.0 3.0 0.00 0.00 0.00 51 1016.0
20260830202030 79 0.0 0.0 0.00 0.00 0.00 52 1016.0
20260830201015 79 0.0 0.0 0.00 0.00 0.00 52 1016.1
20260830200018 79 210 0.0 3.0 0.00 0.00 0.00 52 1016.3
20260830195021 80 0.0 0.0 0.00 0.00 0.00 50 1016.7
20260830194025 81 0.0 0.0 0.00 0.00 0.00 50 1016.7
20260830193028 81 0.0 0.0 0.00 0.00 0.00 49 1016.7
20260830192025 80 0.0 0.0 0.00 0.00 0.00 49 1016.8
20260830191017 80 0.0 0.0 0.00 0.00 0.00 47 1016.8
20260830190020 81 0.0 0.0 0.00 0.00 0.00 46 1017.0
20260830185017 81 0.0 0.0 0.00 0.00 0.00 45 1017.1
20260830184026 82 180 0.0 1.0 0.00 0.00 0.00 44 1017.2
20260830183110 83 0.0 0.0 0.00 0.00 0.00 45 1017.3
20260830182015 83 223 1.0 4.0 0.00 0.00 0.00 43 1017.4
20260830181018 82 259 2.0 5.0 0.00 0.00 0.00 43 1017.8
20260830180022 82 345 3.0 5.0 0.00 0.00 0.00 44 1017.7
20260830175025 83 248 0.0 2.0 0.00 0.00 0.00 44 1017.8
20260830174028 83 198 2.0 6.0 0.00 0.00 0.00 45 1017.9
20260830173031 82 0.0 2.0 0.00 0.00 0.00 45 1017.9
20260830172017 83 250 1.0 4.0 0.00 0.00 0.00 44 1018.0
20260830171020 83 251 4.0 9.0 0.00 0.00 0.00 45 1017.9
20260830170023 82 231 1.0 5.0 0.00 0.00 0.00 46 1018.1
20260830165026 81 233 2.0 8.0 0.00 0.00 0.00 46 1018.2
20260830164030 81 189 3.0 8.0 0.00 0.00 0.00 47 1018.1
20260830163015 80 279 3.0 5.0 0.00 0.00 0.00 47 1018.1
20260830162018 80 227 1.0 6.0 0.00 0.00 0.00 48 1018.1
20260830161042 81 0.0 0.0 0.00 0.00 0.00 47 1018.2
20260830160045 83 194 1.0 4.0 0.00 0.00 0.00 45 1018.3
20260830155028 84 157 2.0 5.0 0.00 0.00 0.00 44 1018.2
20260830154045 83 325 4.0 11.0 0.00 0.00 0.00 45 1018.3
20260830153017 82 188 4.0 8.0 0.00 0.00 0.00 46 1018.4
20260830152020 80 113 0.0 4.0 0.00 0.00 0.00 50 1018.5
20260830151037 79 203 1.0 5.0 0.00 0.00 0.00 51 1018.6